Tracking 20383 objects as of 24-Feb-2020
HD Live streaming from Space Station
objects crossing your sky now
Track the group of recently launched Starlink satellites

COSMOS 2318 (GLONASS)

Track COSMOS 2318 (GLONASS) now!
COSMOS 2318 (GLONASS) is classified as:


NORAD ID: 23622
Int'l Code: 1995-037C
Perigee: 19,086.0 km
Apogee: 19,188.1 km
Inclination: 65.9 °
Period: 675.7 minutes
Semi major axis: 25508 km
RCS: 3.5243 m2 (large)
Launch date: July 24, 1995
Source: Commonwealth of Independent States (former USSR) (CIS)
Launch site: TYURATAM MISSILE AND SPACE COMPLEX (TTMTR)
aabbcc
Your satellite tracking list
Your tracking list is empty




NASA's NSSDC Master Catalog

Two Line Element Set (TLE):
1 23622U 95037C   20054.92497619 +.00000036 +00000-0 +00000-0 0  9996
2 23622 065.8575 278.0651 0020026 095.5986 205.4895 02.13101655191103
Source of the keplerian elements: AFSPC